www.pogodaiklimat.ru

Погода и климат >> Архив погоды >> Россия >> Калмыкия >> Малые Дербеты


ПОГОДА в Малых Дербетах

  • Прогноз погоды в Малых Дербетах
  • Монитор погоды в Малых Дербетах

АРХИВ ПОГОДЫ в Малых Дербетах

Время (UTC), дата Ветер
(напр.,м/с)
 
Видим.   Явления Облачность Т
(С)
Тd
(С)
f
(%)
Тe
(С)
Тes
(С)
Комфортность P
(гПа)
Po
(гПа)
Тmin
(С)
Tmax
(С)
R
(мм)
R24
(мм)
S
(см)
06 15.04 СВ 4 20 км {ливн. осадки} 10/0
[Ac As Ci sp]
+16.4 +11.0 70 +16 +18 1013.8 1012.8
09 15.04 В 5 20 км 10/4 600 м
[Cu med, cong Ci fib]
+19.9 +11.4 58 +21 +25 комфорт 1014.2 1013.1
12 15.04 В 4 20 км 10/3 600 м
[Cu med, cong As trans]
+20.5 +9.6 50 +22 +24 комфорт 1014.1 1013.0
15 15.04 С 3 20 км 10/4 600 м
[Sc diur, vesp Cs]
+16.0 +12.5 80 +16 +16 1013.9 1012.8 +21.3
18 15.04 С 2 20 км зарница {дождь} 10/10 500 м
[Cb cap]
+14.5 +11.9 84 +14 +14 1014.2 1013.1
21 15.04 С 3 20 км в посл. час ливневой дождь 9/0
[Ac As]
+13.1 +11.7 91 +12 +12 1014.5 1013.5
00 16.04 СВ 2 20 км {ливн. осадки} 4/0
[Ac cast]
+11.9 +9.6 86 +11 +11 1014.4 1013.3
03 16.04 С 2 20 км 9/0
[Ac As]
+10.9 +8.0 82 +10 +10 1014.2 1013.1 +10.9 3
06 16.04 СВ 3 20 км 9/0
[Ac As]
+12.9 +7.6 70 +12 +14 1014.4 1013.3 +10.9
09 16.04 СВ 5 20 км 9/0
[Ac As]
+16.9 +7.4 53 +16 +19 1013.2 1012.1
12 16.04 СВ 5 20 км 9/0
[Ac As]
+16.8 +6.8 52 +16 +18 1011.9 1010.9
15 16.04 С 2 4000 м слаб. ливневой дождь 9/6 600 м
[Cb cap Ac As]
+13.2 +9.9 80 +12 +13 1012.6 1011.5 +17.5 1
18 16.04 С 4 4000 м слаб. ливневой дождь 10/10 570 м
[Cb cap]
+11.4 +7.8 79 +9 +9 1013.1 1012.0
21 16.04 С 4
{10}
10 км слаб. ливневой дождь 10/10 540 м
[Cb cap]
+10.6 +7.6 82 +8 +8 1013.2 1012.1
00 17.04 С 4 4000 м слаб. ливневой дождь 10/10 570 м
[Cb cap]
+9.5 +7.5 87 +7 +7 1012.8 1011.7
03 17.04 С 7 4000 м слаб. ливневой дождь 10/10 540 м
[Cb cap]
+8.3 +6.4 88 +4 +4 1013.3 1012.2 +8.3 5
06 17.04 С 7-13
{15}
4000 м слаб. ливневой дождь 10/10 540 м
[Cb cap]
+5.2 +2.9 85 -0 -0 1016.0 1014.9 +5.2
09 17.04 С 7-12
{15}
4000 м слаб. ливневой дождь 10/10 540 м
[Cb cap]
+6.0 +1.6 73 +1 +1 1017.1 1016.0
12 17.04 СВ 9 20 км {ливн. осадки} 10/3 600 м
[Cu med, cong As trans]
+7.7 +0.4 60 +3 +3 1017.9 1016.7
15 17.04 С 7-13
{16}
20 км 10/0
[Ac lent Cs]
+7.0 -2.9 49 +3 +3 1019.3 1018.2 +8.3 8
18 17.04 С 4
{13}
20 км 10/0
[Cs]
+4.4 -6.6 45 +1 +1 1021.8 1020.7
21 17.04 С 4
{11}
20 км 10/0
[Ci fib]
+1.9 -6.4 54 -2 -2 1022.8 1021.6
00 18.04 С 4 20 км ясно -0.4 -6.9 61 -5 -5 1023.3 1022.1
03 18.04 С 4 20 км 3/0
[Ci fib]
-1.1 -7.3 63 -6 -6 1024.8 1023.6 -1.5
06 18.04 С 6
{11}
20 км 3/0
[Ci fib]
+3.6 -6.5 48 -1 +2 1025.8 1024.6
09 18.04 С 6-11
{12}
20 км пыльный позёмок 4/0
[Ci fib]
+7.4 -9.3 29 +4 +9 1025.8 1024.7
12 18.04 С 6
{13}
20 км 1/0
[Ci fib]
+9.0 -10.9 23 +6 +9 1025.1 1024.0
15 18.04 СВ 5
{11}
20 км 4/0
[Ci fib]
+7.9 -9.9 27 +5 +5 1024.9 1023.8 +9.1
18 18.04 С 2 20 км 3/0
[Ci fib]
+2.3 -5.3 57 -0 -0 1026.4 1025.3
21 18.04 С 2 20 км 1/0
[Ci fib]
-0.2 -6.0 65 -3 -3 1026.6 1025.4
00 19.04 С 2 20 км 3/0
[Ci fib]
-1.3 -6.8 66 -5 -5 1025.9 1024.7
03 19.04 С 2 20 км 10/0
[Ci fib]
-2.2 -6.3 73 -6 -6 1026.3 1025.1 -2.8
06 19.04 СВ 5 20 км 10/0
[Ci fib]
+6.9 -9.5 30 +4 +7 1026.6 1025.5
09 19.04 СВ 4
{14}
20 км 10/0
[Ci fib]
+9.3 -11.4 22 +7 +15 1026.3 1025.2
12 19.04 СВ 4 20 км 10/0
[Ci fib]
+10.6 -10.9 21 +9 +14 1025.7 1024.6
15 19.04 СВ 2 20 км 10/0
[Ci fib]
+9.0 -8.5 28 +8 +9 1025.4 1024.3 +10.7
18 19.04 СВ 2 20 км 4/0
[Ci fib]
+4.2 -4.4 54 +2 +2 1026.4 1025.2
21 19.04 СЗ 1 10 км ясно +1.9 -4.6 62 +1 +1 1026.5 1025.3
00 20.04 20 км 3/0
[Ci fib]
+0.6 -5.1 66 1026.1 1024.9
03 20.04 СЗ 3 20 км 10/0
[Ci fib]
+0.8 -4.5 68 -3 -3 1026.2 1025.0 -0.0
06 20.04 С 2 20 км 8/0
[Ci fib]
+9.3 -5.0 36 +8 +16 1026.6 1025.5
09 20.04 С 4 20 км 1/0
[Ci fib]
+12.2 -9.8 20 +11 +21 опасность
простуды
1026.1 1025.0
12 20.04 С 3 20 км 1/0
[Ci fib]
+13.2 -9.0 20 +12 +20 1025.3 1024.2
15 20.04 В 2 20 км 3/0
[Ci fib]
+12.5 -8.7 22 +12 +13 1024.8 1023.7 +13.5
18 20.04 С 1 20 км ясно +5.4 -2.2 58 +5 +5 1026.0 1024.8
21 20.04 СЗ 1 20 км ясно +3.0 -2.0 70 +2 +2 1025.9 1024.8
00 21.04 СЗ 1 20 км ясно +1.7 -3.1 70 0 0 1025.2 1024.1
03 21.04 штиль 0 20 км ясно +1.5 -3.0 72 +1 +2 1025.9 1024.7 +0.4
06 21.04 С 2 20 км ясно +10.9 -4.5 34 +10 +19 1026.2 1025.1
09 21.04 СВ 4 20 км 3/3 600 м
[Cu hum]
+14.0 -7.6 22 +13 +20 1025.6 1024.5
12 21.04 СВ 3 20 км 3/3 600 м
[Cu hum]
+14.5 -7.1 22 +14 +19 1024.7 1023.6
15 21.04 В 2 20 км 1/1 600 м
[Cu hum]
+13.8 -6.3 24 +14 +14 1024.5 1023.4 +14.9
18 21.04 С 1 20 км ясно +7.2 -1.4 54 +7 +7 1025.3 1024.2
21 21.04 СВ 2 20 км ясно +4.8 -2.7 58 +3 +3 1025.6 1024.5
00 22.04 С 1 20 км ясно +2.8 -3.8 62 +2 +2 1025.9 1024.8
03 22.04 СЗ 2 20 км ясно +3.7 -2.3 65 +1 +2 1026.2 1025.1 +2.0

 

Местоположение метеостанции Малые Дербеты (Калмыкия, Россия): широта 47.93 долгота 44.70 высота над уровнем моря 9 м.

В архиве по умолчанию представлена погода в Малых Дербетах за последнюю неделю. Архивные данные за месяц целиком и за предыдущие месяцы, начиная с января 2011 года, Вы можете получить, выбрав интересующий диапазон дат из раскрывающегося списка и нажав кнопку "Ввод!".


*Определитесь, кто Вы:
робот инопланетянин человек

Внимание! Время в таблицах - всемирное. Для получения местного времени необходимо прибавить поправку, которая равна 3 ч.

Смотрите также архив погоды в соседних городах и на ближайших метеорологических станциях:

Погода в Кетченерах (Калмыкия, Россия) (69 км)
Погода в Волгограде город (Волгоградская область, Россия) (84 км)
Погода в Волгограде (Волгоградская область, Россия) (98 км)
Погода в Черный Яр (Астраханская область, Россия) (107 км)
Погода в Котельниково (Волгоградская область, Россия) (121 км)
Погода в Калаче-на-Дону (Волгоградская область, Россия) (123 км)
Погода в Нижнем Чире (Волгоградская область, Россия) (125 км)
Погода в Юсте (Калмыкия, Россия) (151 км)
Погода в Верхнем Баскунчаке (Астраханская область, Россия) (154 км)
Погода в Иловле (Волгоградская область, Россия) (161 км)

Пояснения к столбцам:

Ветер - указаны скорость ветра в м/с - средняя за 10 мин, порывы в срок и между сроками (в фигурных скобках) и направление, откуда дует ветер: С - северный, СВ - северо-восточный, В - восточный, ЮВ - юго-восточный, Ю - южный, ЮЗ - юго-западный, З - западный, СЗ - северо-западный.
Видимость - горизонтальная дальность видимости в метрах или километрах. При видимости от 1 до 10 км при отсутствии осадков обычно наблюдается дымка, при ухудшении видимости до 1 км и менее - туман. В сухую погоду видимость может ухудшаться дымом, пылью или мглою.
Явления - указаны атмосферные явления, наблюдавшиеся в срок или в последний час перед сроком; фигурными скобками обозначены явления, наблюдавшиеся между сроками (за 1-3 часа до срока); квадратными скобками обозначены град или гололедные отложения с указанием их диаметра в мм.
Облачность - указаны через наклонную черту общая и нижняя облачность в баллах и высота нижней границы облаков в метрах; квадратными скобками обозначены формы облаков: Ci - перистые, Cs - перисто-слоистые, Cc - перисто-кучевые, Ac - высококучевые, As - высокослоистые, Sc - слоисто-кучевые, Ns - слоисто-дождевые, Cu - кучевые, Cb - кучево-дождевые. Подробнее классификацию облаков см. в Атласе облаков (PDF).
T - Температура воздуха - температура, измеренная на высоте 2 м над землей.
Td - Температура точки росы - температура, при понижении до которой содержащийся в воздухе водяной пар достигнет насыщения.
f - Относительная влажность воздуха - влажноcть воздуха, измеренная на высоте 2 м над землей.
Te - Эффективная температура - температура, которую ощущает одетый по сезону человек в тени. Характеристика душности погоды. При расчете учитывается влияние влажности воздуха и скорости ветра на теплоощущения человека.
Tes - Эффективная температура на солнце - температура, которую ощущает человек, с поправкой на солнечный нагрев. Характеристика знойности погоды. Зависит от высоты солнца над горизонтом, облачности и скорости ветра. Ночью, в пасмурную погоду, а также при ветре 12 м/с и более поправка равна нулю.
P - Атмосферное давление - приведенное к уровню моря атмосферное давление.
Po - Атмосферное давление - измеренное на уровне метеостанции атмосферное давление.
Tmin - Минимальная температура - минимум температуры воздуха на высоте 2 м над землей.
Tmax - Максимальная температура - максимум температуры воздуха на высоте 2 м над землей.
R - Количество осадков - Количество выпавших осадков за период времени, мм. При наведении курсора мыши на число - период времени, за который выпало указанное количество осадков.
R24 - Количество осадков - Количество выпавших осадков за 24 часа, мм.
S - Снежный покров - Высота снежного покрова, см. При наведении курсора мыши на число - состояние снежного покрова и степень покрытия местности в баллах.